Regional Weather Roundup
Issued by NWS

Home | Current Version | Previous Version | Graphics & Text | Print | Product List | Glossary On
Versions: 1 2 3 4 5 6 7 8 9 10 11 12 13 14 15 16 17 18 19 20 21 22 23 24 25 26 27 28 29 30 31 32 33 34 35 36 37 38 39 40 41 42 43 44 45 46 47 48 49 50
332
ASUS43 KIND 130459
RWRIN

WEATHER ROUNDUP FOR INDIANA
NATIONAL WEATHER SERVICE INDIANAPOLIS IN
1200 AM EST SAT FEB 13 2016

NOTE: "FAIR" INDICATES FEW OR NO CLOUDS BELOW 12,000 FEET WITH NO
SIGNIFICANT WEATHER AND/OR OBSTRUCTIONS TO VISIBILITY.

* - STATION DOES NOT REPORT WEATHER SUCH AS PRECIPITATION OR FOG.

+ - STATION NOT QUALITY CONTROLLED BY THE NATIONAL WEATHER SERVICE.
    USE DATA WITH CAUTION...ESPECIALLY DEWPOINT AND RELATIVE
    HUMIDITY OBSERVATIONS.

INZ001>003-010>013-019-020-130600-
NORTHWEST INDIANA

CITY           SKY/WX    TMP DP  RH WIND       PRES   REMARKS
GARY /AIRPORT/ CLOUDY    13  -5  43 NW20G26   30.43S WCI  -4
MONTICELLO +   CLEAR     13  -3  49 N15       30.38R WCI  -3
RENSSELAER +   CLEAR     14  -9  34 NW14      30.41R WCI  -1

$$

LMZ046-743>745-130600-
SOUTHERN LAKE MICHIGAN

STATION/POSITION TIME  TEMP    WIND        PRES    WAVE
                       AIR SEA DIR/SP/G            HT
                 (UTC) (F)     (DEG/KT/KT) (MB)    (FT)
BURNS HARBOR     0404   16     340/ 19     1028.1R
MICHIGAN CITY    0400   15     300/ 31/ 33   N/A

$$

INZ004-005-014>016-021>024-130600-
NORTH CENTRAL INDIANA

CITY           SKY/WX    TMP DP  RH WIND       PRES   REMARKS
GOSHEN         SNOW      12   7  80 N15       30.31R VSB 1/2 WCI  -4
SOUTH BEND     LGT SNOW  12   8  84 NW20      30.33R VSB 3/4 WCI  -6

$$

INZ006>009-017-018-025>027-130600-
NORTHEAST INDIANA

CITY           SKY/WX    TMP DP  RH WIND       PRES   REMARKS
ANGOLA *+      PTCLDY     9   1  72 N9        30.25R WCI  -5
FORT WAYNE     PTCLDY    13   6  74 NW12      30.29R WCI  -1

$$

INZ028-029-035-036-043>045-051>053-130600-
WEST CENTRAL INDIANA

CITY           SKY/WX    TMP DP  RH WIND       PRES   REMARKS
CRAWFORDSVL +  CLEAR     13   0  56 NW13      30.38R WCI  -1
GREENCASTLE +  CLEAR     18   0  45 NW14G20   30.37R WCI   4
LAFAYETTE      CLEAR     13  -1  54 NW13      30.39R WCI  -2
TERRE HAUTE    CLEAR     17   5  59 NW16      30.42R WCI   2

$$

INZ030>032-037>040-046>048-054>057-064-065-130600-
CENTRAL INDIANA

CITY           SKY/WX    TMP DP  RH WIND       PRES   REMARKS
FRANKFORT +    PTCLDY    15 -11  30 NW13G22   30.37R WCI   1
GREENWOOD *+   PTCLDY    18   7  62 NW16G24   30.35R WCI   3
INDIANAPOLIS   MOCLDY    17   4  56 NW14G24   30.35R WCI   3
-EAGLE CREEK   PTCLDY    17   4  56 NW13      30.35R WCI   4
KOKOMO *+      CLEAR     14   1  57 NW18      30.33R WCI  -3
MT COMFORT *+  CLOUDY    16   1  53 NW21G29   30.34R WCI  -2
SHELBYVILLE    MOCLDY    19   6  57 NW17      30.33R WCI   4

$$

INZ033-034-041-042-049-050-058-059-130600-
EAST CENTRAL INDIANA

CITY           SKY/WX    TMP DP  RH WIND       PRES   REMARKS
MUNCIE         PTCLDY    15   6  67 NW10      30.31R WCI   2

$$

INZ060-061-067>069-081>083-085>088-130600-
SOUTHWEST INDIANA

CITY           SKY/WX    TMP DP  RH WIND       PRES   REMARKS
EVANSVILLE     PTCLDY    25  12  58 NW12G21   30.43R WCI  14
HUNTINGBURG *+ PTCLDY    23   9  54 N18G29    30.40R WCI   9

$$

INZ062-063-066-070>080-084-089>092-130600-
SOUTH CENTRAL AND SOUTHEAST INDIANA

CITY           SKY/WX    TMP DP  RH WIND       PRES   REMARKS
BLOOMINGTON    CLOUDY    19   5  54 N13G22    30.36R WCI   6
MADISON *+     PTCLDY    23   9  54 NW10G16   30.34R WCI  12
SEYMOUR +      CLOUDY    23   7  50 N16G24    30.36R WCI  10

$$





USA.gov is the U.S. government's official web portal to all federal, state and local government web resources and services.